Rome Ciampino, Italy

8:38 AM CEST on May 24, 2018 (GMT +0200)
Ciampino

Weather History for LIRA - September, 2013

Change the Weather History Date:

Wednesday, September 11, 2013

  Actual Average Record
Temperature  
Mean Temperature 72 °F -  
Max Temperature 77 °F 77 °F 93 °F (2008)
Min Temperature 66 °F 56 °F 51 °F (2001)
Cooling Degree Days 6    
Growing Degree Days 22 (Base 50)    
Moisture  
Dew Point 65 °F    
Average Humidity 80    
Maximum Humidity 100    
Minimum Humidity 61    
Precipitation  
Precipitation 0.00 in 0.10 in - ()
Sea Level Pressure  
Sea Level Pressure 29.98 in    
Wind  
Wind Speed 6 mph ()    
Max Wind Speed 13 mph    
Max Gust Speed -    
Visibility 6.2 miles    
Events Rain    
Averages and records for this station are not official NWS values.
T = Trace of Precipitation, MM = Missing Value Source: Averaged Metar Reports

Daily Weather History Graph

Daily Weather History Graph

Search for Another Location

Airport or City:

Astronomy

Sep. 11, 2013 Rise Set
Actual Time 6:45 AM CEST 7:26 PM CEST
Civil Twilight 6:17 AM CEST 7:54 PM CEST
Nautical Twilight 5:44 AM CEST 8:27 PM CEST
Astronomical Twilight 5:10 AM CEST 9:01 PM CEST
Moon 1:02 PM CEST (9/11) 11:00 PM CEST (9/11)
Length of Visible Light 13h 36m
Length of Day
12h 40m
Waxing Crescent, 36% of the Moon is Illuminated
Sep 11
Waxing Crescent
Sep 12
First Quarter
Sep 19
Full
Sep 27
Last Quarter
Oct 5
New

Hourly Weather History & Observations

Time (CEST) Temp. Dew Point Humidity Pressure Visibility Wind Dir Wind Speed Gust Speed Precip Events Conditions
12:15 AM 66.2 °F 64.4 °F 94% 29.98 in 6.2 mi ENE 2.3 mph - N/A Rain Light Rain
12:45 AM 66.2 °F 64.4 °F 94% 29.98 in 6.2 mi East 2.3 mph - N/A Rain Light Rain
1:15 AM 66.2 °F 66.2 °F 100% 29.98 in 6.2 mi SE 2.3 mph - N/A   Mostly Cloudy
1:45 AM 66.2 °F 66.2 °F 100% 29.98 in 6.2 mi SSE 2.3 mph - N/A Rain Light Rain
2:15 AM 66.2 °F 66.2 °F 100% 29.98 in 6.2 mi SE 4.6 mph - N/A Rain Light Rain
2:45 AM 66.2 °F 66.2 °F 100% 29.98 in 6.2 mi SSE 4.6 mph - N/A   Scattered Clouds
3:15 AM 66.2 °F 66.2 °F 100% 29.95 in 6.2 mi SSE 5.8 mph - N/A   Scattered Clouds
3:45 AM 66.2 °F 64.4 °F 94% 29.95 in 6.2 mi SE 6.9 mph - N/A   Scattered Clouds
4:15 AM 66.2 °F 64.4 °F 94% 29.95 in 6.2 mi SE 6.9 mph - N/A   Scattered Clouds
4:45 AM 66.2 °F 64.4 °F 94% 29.95 in 6.2 mi SSE 8.1 mph - N/A   Scattered Clouds
5:15 AM 66.2 °F 66.2 °F 100% 29.95 in 6.2 mi SSE 6.9 mph - N/A   Scattered Clouds
7:15 AM 68.0 °F 66.2 °F 94% 29.95 in 6.2 mi SSE 8.1 mph - N/A   Partly Cloudy
7:45 AM 68.0 °F 68.0 °F 100% 29.95 in 6.2 mi SSE 8.1 mph - N/A   Partly Cloudy
8:15 AM 69.8 °F 68.0 °F 94% 29.95 in 6.2 mi South 9.2 mph - N/A   Partly Cloudy
8:45 AM 69.8 °F 68.0 °F 94% 29.98 in 6.2 mi South 9.2 mph - N/A   Scattered Clouds
9:15 AM 71.6 °F 68.0 °F 88% 29.98 in 6.2 mi South 9.2 mph - N/A   Scattered Clouds
9:45 AM 73.4 °F 68.0 °F 83% 29.98 in 6.2 mi South 10.4 mph - N/A   Scattered Clouds
10:15 AM 73.4 °F 66.2 °F 78% 29.98 in 6.2 mi SSW 9.2 mph - N/A   Partly Cloudy
10:45 AM 75.2 °F 66.2 °F 73% 29.98 in 6.2 mi SW 10.4 mph - N/A   Partly Cloudy
11:15 AM 75.2 °F 66.2 °F 73% 29.98 in 6.2 mi SSW 11.5 mph - N/A   Partly Cloudy
11:45 AM 75.2 °F 66.2 °F 73% 29.98 in 6.2 mi SW 10.4 mph - N/A   Partly Cloudy
12:15 PM 77.0 °F 64.4 °F 65% 29.98 in 6.2 mi SW 11.5 mph - N/A   Partly Cloudy
12:45 PM 77.0 °F 64.4 °F 65% 30.01 in 6.2 mi SW 11.5 mph - N/A   Partly Cloudy
1:15 PM 77.0 °F 64.4 °F 65% 30.01 in 6.2 mi SW 12.7 mph - N/A   Partly Cloudy
1:45 PM 77.0 °F 64.4 °F 65% 30.01 in 6.2 mi WSW 11.5 mph - N/A   Partly Cloudy
2:15 PM 77.0 °F 64.4 °F 65% 29.98 in 6.2 mi SW 10.4 mph - N/A   Partly Cloudy
2:45 PM 75.2 °F 62.6 °F 65% 29.98 in 6.2 mi SW 10.4 mph - N/A   Scattered Clouds
3:15 PM 75.2 °F 62.6 °F 65% 29.98 in 6.2 mi SW 11.5 mph - N/A   Scattered Clouds
3:45 PM 75.2 °F 60.8 °F 61% 29.98 in 6.2 mi SW 10.4 mph - N/A   Scattered Clouds
4:15 PM 73.4 °F 60.8 °F 65% 29.98 in 6.2 mi WSW 11.5 mph - N/A   Mostly Cloudy
4:45 PM 73.4 °F 62.6 °F 69% 29.98 in 6.2 mi WSW 9.2 mph - N/A   Mostly Cloudy
5:15 PM 75.2 °F 62.6 °F 65% 29.98 in 6.2 mi SW 9.2 mph - N/A   Mostly Cloudy
5:45 PM 75.2 °F 64.4 °F 69% 29.98 in 6.2 mi SW 9.2 mph - N/A   Mostly Cloudy
6:15 PM 73.4 °F 66.2 °F 78% 29.98 in 6.2 mi WSW 9.2 mph - N/A   Scattered Clouds
6:45 PM 73.4 °F 66.2 °F 78% 29.98 in 6.2 mi WSW 5.8 mph - N/A   Scattered Clouds
7:15 PM 73.4 °F 64.4 °F 73% 29.98 in 6.2 mi SW 4.6 mph - N/A   Scattered Clouds
7:45 PM 71.6 °F 66.2 °F 83% 29.98 in 6.2 mi SW 3.5 mph - N/A   Scattered Clouds
8:15 PM 71.6 °F 64.4 °F 78% 29.98 in 6.2 mi SW 2.3 mph - N/A   Scattered Clouds
8:45 PM 71.6 °F 64.4 °F 78% 29.98 in 6.2 mi SW 1.2 mph - N/A   Scattered Clouds
9:15 PM 71.6 °F 64.4 °F 78% 29.98 in 6.2 mi South 2.3 mph - N/A   Scattered Clouds
9:45 PM 71.6 °F 64.4 °F 78% 29.98 in 6.2 mi SSW 3.5 mph - N/A   Scattered Clouds
10:15 PM 71.6 °F 62.6 °F 73% 29.98 in 6.2 mi SW 4.6 mph - N/A   Scattered Clouds
10:45 PM 69.8 °F 60.8 °F 73% 29.98 in 6.2 mi WSW 3.5 mph - N/A   Partly Cloudy
11:15 PM 69.8 °F 60.8 °F 73% 29.98 in 6.2 mi WSW 4.6 mph - N/A   Scattered Clouds
11:45 PM 69.8 °F 59.0 °F 68% 29.98 in 6.2 mi SSW 2.3 mph - N/A   Scattered Clouds